• Join FlightAware (Why Join?)
  • Login
  • US Flag 
12:07AM EST


 

Airport Tracker/Info


-or-


 

Live Flight TrackerFlight Track Log ✈ HAL303 ✈ 05-May-2013 ✈ PHNL - PHLI / LIH

Flight Track Log - Related Links

Times and Time Zones

All times are in EDT time to prevent confusion due to time zone crossing. See the HAL303 flight status page for this flight to view local times or setup timezone preferences in your user account.

Time Position Orientation Groundspeed Altitude Reporting Facility
EDT Latitude Longitude Course Direction KTS MPH feet Rate Location/Type
02:46PM 21.3000 -157.9000 270° West 170 196 1,000  Level Honolulu Center
02:47PM 21.2500 -157.9000 180° South 220 253 2,500 2,000 Climbing Honolulu Center
02:48PM 21.2333 -157.9667 255° West 240 276 5,000 2,400 Climbing Honolulu Center
02:49PM 21.3000 -158.1327 270° West  Level FlightAware Approximate
02:49PM 21.2167 -158.0333 255° West 250 288 7,300  Level Honolulu Center
02:50PM 21.3000 -158.2051 270° West  Level FlightAware Approximate
02:50PM 21.2333 -158.1167 282° West 250 288 9,800  Level Honolulu Center
02:51PM 21.3000 -158.2776 270° West  Level FlightAware Approximate
02:51PM 21.2500 -158.2000 282° West 290 334 11,200  Level Honolulu Center
02:52PM 21.3000 -158.3500 270° West  Level FlightAware Approximate
02:52PM 21.2667 -158.3000 280° West 320 368 12,000  Level Honolulu Center
02:53PM 21.2833 -158.3833 282° West 320 368 12,000  Level Honolulu Center
02:54PM 21.3167 -158.4833 290° West 320 368 12,000  Level Honolulu Center
02:55PM 21.3500 -158.5667 293° West 320 368 12,000 -200 Level Honolulu Center
02:56PM 21.4000 -158.6333 309° West 300 345 11,600 -1,150 Descending Honolulu Center
02:57PM 21.4333 -158.7167 293° West 280 322 9,700 -1,950 Descending Honolulu Center
02:58PM 21.4833 -158.7833 309° West 280 322 7,700 -1,983 Descending Honolulu Center
02:59PM 21.5167 -158.8500 298° West 280 322 5,700 -1,700 Descending Honolulu Center
03:00PM 21.5500 -158.9167 298° West 270 311 4,300 -1,250 Descending Honolulu Center
03:01PM 21.6000 -159.0000 303° West 260 299 3,200 -645 Descending Honolulu Center
03:02PM 21.6333 -159.0667 298° West 260 299 3,000 -100 Descending Honolulu Center
03:03PM 21.6667 -159.1333 298° West 270 311 3,000  Level Honolulu Center
03:04PM 21.7000 -159.2000 298° West 260 299 3,000 -150 Level Honolulu Center
03:05PM 21.7500 -159.2500 317° Northwest 260 299 2,700 -550 Descending Honolulu Center
03:06PM 21.8167 -159.2833 335° Northwest 240 276 1,900 -545 Descending Honolulu Center
03:07PM 21.8667 -159.3167 328° Northwest 200 230 1,600 -450 Descending Honolulu Center
03:08PM 21.9000 -159.3333 335° Northwest 130 150 1,000 -655 Descending Honolulu Center
03:09PM 21.9500 -159.3333 360° North 120 138 300 -700 Descending Honolulu Center